www.pogodaiklimat.ru

Погода и климат >> Архив погоды >> Португалия >> Фару


ПОГОДА в Фару

  • Прогноз погоды в Фару
  • Монитор погоды в Фару

АРХИВ ПОГОДЫ в Фару

Время (UTC), дата Ветер
(напр.,м/с)
 
Видим.   Явления Облачность Т
(С)
Тd
(С)
f
(%)
Тe
(С)
Тes
(С)
Комфортность P
(гПа)
Po
(гПа)
Тmin
(С)
Tmax
(С)
R
(мм)
R24
(мм)
S
(см)
13 12.01 В 5
{8}
н/о н/о +14.8 +3.6 47 +14 +14 1027.8 1026.8
14 12.01 В 6 н/о н/о +15.1 +3.8 47 +14 +14 1027.4 1026.5
15 12.01 В 6
{9}
20 км ясно +15.2 +3.7 46 +14 +15 1027.4 1026.4
16 12.01 В 5 н/о н/о +14.7 +3.5 47 +13 +13 1027.4 1026.5
17 12.01 В 4
{6}
н/о н/о +13.5 +4.6 55 +12 +12 1027.5 1026.5
18 12.01 В 3 20 км ясно +12.7 +5.2 60 +11 +11 1028.1 1027.1 +15.4
19 12.01 СВ 3 н/о н/о +12.3 +3.8 56 +11 +11 1028.7 1027.7
20 12.01 С 3 н/о н/о +9.9 +3.7 65 +8 +8 1028.6 1027.6
21 12.01 С 3
{5}
20 км ясно +10.6 +1.3 53 +9 +9 1028.7 1027.7
22 12.01 СВ 3
{5}
н/о н/о +10.1 +1.0 53 +8 +8 1029.1 1028.1
23 12.01 СВ 3
{5}
н/о н/о +10.0 +1.0 54 +8 +8 1028.9 1027.9
00 13.01 С 4 20 км ясно +9.1 +1.1 57 +7 +7 1028.3 1027.3
01 13.01 С 3
{5}
н/о н/о +9.5 +0.9 55 +8 +8 1028.1 1027.1
02 13.01 СВ 3 н/о н/о +8.9 +0.6 56 +7 +7 1028.3 1027.3
03 13.01 В 3 20 км ясно +9.3 +0.1 53 +7 +7 1028.4 1027.4
04 13.01 В 4
{6}
н/о н/о +9.8 -1.4 46 +8 +8 1028.2 1027.2
05 13.01 СВ 3
{5}
н/о н/о +9.3 -1.4 47 +7 +7 1028.2 1027.2
06 13.01 СВ 1 20 км ясно +7.0 -0.8 58 +6 +6 1028.3 1027.3 +6.5
07 13.01 В 2 н/о н/о +8.5 -1.2 50 +7 +7 1028.3 1027.3
08 13.01 СВ 4 н/о н/о +8.7 -1.9 47 +6 +6 1028.5 1027.5
09 13.01 В 4
{6}
20 км ясно +9.5 -1.2 47 +7 +8 1029.0 1028.0
10 13.01 В 5 н/о н/о +12.6 -0.1 42 +11 +11 1029.6 1028.6
11 13.01 В 5 н/о н/о +14.0 +0.6 40 +13 +13 1029.8 1028.8
12 13.01 В 5 20 км ясно +14.5 +3.1 46 +13 +16 1029.0 1028.0
13 13.01 В 6 н/о н/о +15.1 +2.5 43 +14 +14 1028.0 1027.0
14 13.01 СВ 4
{7}
н/о н/о +15.6 +3.8 45 +15 +15 1027.1 1026.2
15 13.01 СВ 3
{5}
20 км ясно +15.3 +4.5 48 +15 +18 1026.9 1026.0
16 13.01 СВ 2
{5}
н/о н/о +15.4 +4.3 47 +15 +15 1026.7 1025.8
17 13.01 СВ 1 н/о н/о +14.5 +3.5 48 +15 +15 1026.8 1025.9
18 13.01 СЗ 1 20 км ясно +12.8 +4.8 58 +13 +13 1027.2 1026.2 +16.0
19 13.01 СЗ 2 н/о н/о +11.6 +5.3 65 +11 +11 1027.1 1026.2
20 13.01 СЗ 3 н/о н/о +10.8 +5.4 69 +9 +9 1027.1 1026.1
21 13.01 СЗ 4 20 км ясно +10.0 +5.1 72 +7 +7 1027.2 1026.2
22 13.01 СЗ 3
{5}
н/о н/о +9.7 +4.6 71 +8 +8 1027.1 1026.1
23 13.01 штиль 0 н/о н/о +8.5 +4.3 75 +8 +8 1027.2 1026.2
00 14.01 С 3 20 км ясно +9.2 +1.7 59 +7 +7 1026.5 1025.5
01 14.01 штиль 0 н/о н/о +6.7 +2.4 74 +6 +6 1026.0 1025.0
02 14.01 С 1 н/о н/о +7.5 +1.0 63 +7 +7 1025.8 1024.8
03 14.01 СВ 1 20 км ясно +7.6 +0.9 62 +7 +7 1025.7 1024.7
04 14.01 СВ 1 н/о н/о +6.9 +1.0 66 +6 +6 1025.5 1024.5
05 14.01 С 1 н/о н/о +6.3 +0.4 66 +6 +6 1025.1 1024.1
06 14.01 С 1 20 км ясно +4.0 +0.8 80 +3 +3 1025.1 1024.1 +3.8
07 14.01 С 1 н/о н/о +5.4 +1.9 78 +4 +4 1025.1 1024.1
08 14.01 СВ 1 н/о н/о +5.5 +3.4 86 +4 +4 1025.3 1024.3
09 14.01 штиль 0 н/о н/о +7.8 +5.0 82 +7 +7 1025.6 1024.6
10 14.01 штиль 0 н/о н/о +12.3 +6.5 68 +12 +12 1025.9 1024.9
11 14.01 С 1 н/о н/о +15.0 +6.7 58 +16 +16 1025.9 1024.9
12 14.01 СЗ 1 20 км ясно +15.3 +4.9 50 +16 +23 1024.9 1024.0
13 14.01 СЗ 2 н/о н/о +15.8 +5.6 51 +16 +16 1024.0 1023.0
14 14.01 СЗ 2 н/о н/о +15.8 +5.6 51 +16 +16 1024.0 1023.0
15 14.01 СЗ 3
{5}
20 км ясно +15.7 +7.3 57 +15 +18 1022.6 1021.7
16 14.01 СЗ 4 н/о н/о +15.8 +6.3 53 +15 +15 1022.3 1021.4
17 14.01 СЗ 2
{5}
н/о н/о +15.1 +6.3 56 +15 +15 1022.2 1021.3
18 14.01 З 1 н/о н/о +13.5 +6.3 62 +14 +14 1022.2 1021.3 +16.1
19 14.01 СВ 2 н/о н/о +12.7 +5.6 62 +12 +12 1022.3 1021.4
20 14.01 С 1 н/о н/о +10.8 +5.1 68 +11 +11 1022.2 1021.2
21 14.01 н/о н/о +9.4 +4.3 70 1022.1 1021.1
22 14.01 штиль 0 н/о н/о +9.2 +3.6 68 +9 +9 1022.2 1021.2
23 14.01 штиль 0 н/о н/о +7.8 +3.9 76 +7 +7 1022.1 1021.1
00 15.01 штиль 0 н/о н/о +8.7 +3.7 71 +8 +8 1021.8 1020.8
01 15.01 С 1 н/о н/о +8.0 +3.0 71 +7 +7 1021.5 1020.5
02 15.01 СВ 1 н/о н/о +7.9 +2.5 69 +7 +7 1021.3 1020.3
04 15.01 С 1 н/о н/о +7.1 +2.6 73 +6 +6 1021.0 1020.0
05 15.01 СВ 1 н/о н/о +7.1 +2.2 71 +6 +6 1020.6 1019.6
06 15.01 С 1 20 км ясно +6.9 +2.4 73 +6 +6 1020.7 1019.7 +3.5
07 15.01 СВ 1 н/о н/о +5.7 +1.8 76 +5 +5 1021.1 1020.1
08 15.01 штиль 0 н/о н/о +3.7 +2.3 91 +3 +3 1021.5 1020.5
09 15.01 С 1 20 км 3/0
[Ac trans Ci fib]
+8.4 +5.0 79 +8 +9 1021.9 1020.9
10 15.01 СЗ 1 н/о н/о +12.1 +7.0 71 +12 +12 1022.4 1021.5
11 15.01 З 2 н/о н/о +15.1 +7.0 58 +15 +15 1022.5 1021.6
12 15.01 З 3
{5}
20 км 4/0
[Ac trans Ci fib]
+15.3 +8.3 63 +15 +19 1021.9 1020.9
13 15.01 З 4
{6}
н/о н/о +15.4 +8.8 65 +14 +14 1021.1 1020.2
14 15.01 С 3
{5}
н/о н/о +15.2 +8.6 65 +15 +15 1020.7 1019.7
15 15.01 СЗ 2
{5}
20 км 4/1 750 м
[Cu hum Ac trans Ci fib]
+15.0 +7.8 62 +15 +17 1020.6 1019.6
16 15.01 СЗ 2 н/о н/о +14.9 +8.3 65 +15 +15 1020.7 1019.7
17 15.01 штиль 0 н/о н/о +14.6 +7.6 63 +14 +14 1020.8 1019.9
18 15.01 В 2 20 км 4/3 600 м
[Cu med, cong Ac trans Ci fib]
+12.9 +8.0 72 +12 +12 1021.1 1020.1 +15.9
19 15.01 В 1 н/о н/о +12.6 +7.8 73 +13 +13 1021.2 1020.2
20 15.01 В 2 н/о н/о +12.1 +8.3 78 +11 +11 1021.3 1020.4
21 15.01 СВ 2 20 км 6/5 840 м
[Cu Sc Ac trans Ci fib]
+11.9 +8.3 79 +11 +11 1021.4 1020.5
22 15.01 СВ 2 н/о н/о +10.9 +8.0 82 +10 +10 1021.8 1020.8
23 15.01 СВ 1 н/о н/о +9.9 +7.7 86 +9 +9 1022.0 1021.0
00 16.01 С 2 20 км 3/0
[Ci fib]
+9.3 +6.9 85 +8 +8 1021.7 1020.7
01 16.01 С 2 н/о н/о +9.5 +7.4 87 +8 +8 1021.4 1020.4
02 16.01 СВ 1 н/о н/о +9.1 +7.0 87 +8 +8 1021.2 1020.2
03 16.01 СВ 2 20 км 3/1 1200 м
[Sc Ci fib]
+9.5 +7.2 86 +8 +8 1021.2 1020.2
04 16.01 СВ 3 н/о н/о +9.7 +7.2 84 +7 +7 1020.9 1019.9
05 16.01 СВ 2 н/о н/о +8.9 +7.0 88 +7 +7 1020.5 1019.5
06 16.01 СВ 3 20 км 4/1 1500 м
[Sc Ci fib]
+8.0 +6.2 88 +5 +5 1020.1 1019.1 +7.0
07 16.01 СВ 3 н/о н/о +8.7 +6.8 88 +6 +6 1020.3 1019.4
08 16.01 В 3 н/о н/о +8.2 +6.8 91 +5 +5 1020.7 1019.8
09 16.01 СВ 2 10 км 4/3 1200 м
[Cu Sc Ci fib]
+10.3 +8.5 89 +9 +10 1020.9 1019.9
10 16.01 В 3
{5}
н/о н/о +12.6 +9.2 80 +11 +11 1021.1 1020.1
11 16.01 В 4 н/о н/о +14.6 +9.9 73 +13 +13 1021.3 1020.3
12 16.01 В 5 12 км 4/1 900 м
[Sc diur, vesp Ci fib]
+14.7 +9.9 73 +13 +16 1020.7 1019.7
13 16.01 СВ 4
{6}
н/о н/о +15.1 +10.4 73 +14 +14 1019.7 1018.8
14 16.01 СВ 3
{6}
н/о н/о +15.9 +11.1 73 +15 +15 1019.0 1018.0
15 16.01 штиль 0
{5}
50 км ?/? +15.7 +9.6 67 +16 +16 1018.9 1017.9
16 16.01 С 2 н/о н/о +14.9 +9.7 71 +15 +15 1018.9 1017.9
17 16.01 СЗ 2 н/о н/о +14.5 +9.3 71 +14 +14 1018.9 1018.0
18 16.01 З 2 н/о н/о +14.0 +8.9 71 +14 +14 1019.0 1018.0 +16.4
19 16.01 С 1 н/о н/о +13.9 +9.3 74 +14 +14 1019.2 1018.3
20 16.01 СВ 2 н/о н/о +13.3 +9.2 76 +13 +13 1019.4 1018.4
21 16.01 СВ 2 н/о н/о +13.3 +8.7 74 +13 +13 1019.4 1018.5
22 16.01 СВ 2 н/о н/о +13.2 +8.9 75 +13 +13 1019.5 1018.5
23 16.01 С 1 н/о н/о +12.3 +8.9 80 +12 +12 1019.6 1018.6
00 17.01 С 2 15 км 9/6 540 м
[Cu Sc Ac trans]
+12.3 +9.1 81 +11 +11 1019.4 1018.5
01 17.01 С 2 н/о н/о +12.2 +9.2 82 +11 +11 1018.9 1017.9
02 17.01 штиль 0 н/о н/о +11.2 +9.1 87 +11 +11 1018.7 1017.7
03 17.01 С 2 н/о н/о +11.9 +8.2 78 +11 +11 1018.6 1017.6
04 17.01 С 1 н/о н/о +11.6 +8.0 79 +11 +11 1018.4 1017.4
05 17.01 С 1 н/о н/о +10.3 +8.0 86 +10 +10 1018.2 1017.2
06 17.01 С 3 н/о н/о +10.7 +7.4 80 +9 +9 1018.2 1017.2 +9.5
07 17.01 СЗ 1 н/о н/о +7.6 +5.7 88 +7 +7 1018.9 1017.9
08 17.01 С 1 н/о н/о +9.3 +7.9 91 +9 +9 1019.3 1018.3
09 17.01 штиль 0 н/о н/о +11.1 +8.5 84 +10 +10 1019.8 1018.8
10 17.01 СЗ 3
{5}
н/о н/о +13.8 +7.8 67 +13 +13 1020.8 1019.8
11 17.01 С 2
{5}
н/о н/о +14.3 +7.6 64 +14 +14 1021.0 1020.0
12 17.01 СВ 2 н/о н/о +15.8 +7.3 57 +16 +16 1020.2 1019.2
13 17.01 С 4 н/о н/о +15.8 +8.7 63 +15 +15 1019.5 1018.5
14 17.01 СЗ 4
{6}
н/о н/о +15.6 +8.9 64 +15 +15 1018.8 1017.8
15 17.01 СЗ 4
{6}
н/о н/о +16.8 +7.2 53 +16 +16 1018.5 1017.6
16 17.01 С 5
{8}
н/о н/о +16.1 +6.4 53 +15 +15 1018.7 1017.8
17 17.01 С 4
{7}
н/о н/о +14.5 +6.5 59 +13 +13 1019.3 1018.3
18 17.01 штиль 0
{7}
50 км ?/? +12.3 +7.0 70 +12 +12 1019.9 1018.9
19 17.01 СВ 1
{7}
н/о н/о +11.7 +6.8 72 +12 +12 1020.2 1019.2
20 17.01 СЗ 1
{5}
н/о н/о +10.4 +6.4 76 +10 +10 1020.4 1019.4
21 17.01 З 3
{5}
15 км ясно +10.4 +6.4 76 +8 +8 1020.7 1019.8
22 17.01 СЗ 4-6
{6}
н/о н/о +11.1 +4.7 65 +9 +9 1021.1 1020.1
23 17.01 З 1
{5}
н/о н/о +9.5 +4.2 69 +9 +9 1021.5 1020.5
00 18.01 штиль 0
{5}
15 км ясно +8.9 +3.8 70 +8 +8 1021.5 1020.5
01 18.01 штиль 0 н/о н/о +9.7 +4.9 72 +9 +9 1021.1 1020.1
02 18.01 СЗ 1 н/о н/о +9.4 +5.2 75 +9 +9 1021.1 1020.1
03 18.01 В 1 н/о н/о +7.4 +4.6 82 +7 +7 1020.9 1019.9
04 18.01 СЗ 1 н/о н/о +8.4 +4.7 78 +8 +8 1020.9 1019.9
05 18.01 С 1 н/о н/о +7.4 +4.6 82 +7 +7 1020.7 1019.7
06 18.01 СЗ 1 15 км ясно +5.1 +3.3 88 +4 +4 1021.1 1020.1 +5.1
07 18.01 СЗ 1 н/о н/о +6.6 +4.0 83 +6 +6 1021.6 1020.6
08 18.01 СЗ 1 н/о н/о +6.7 +4.0 83 +6 +6 1021.8 1020.8
09 18.01 СЗ 2 20 км 4/0
[Ci fib]
+9.8 +5.7 76 +8 +10 1022.3 1021.3
10 18.01 СЗ 2
{6}
н/о н/о +12.1 +6.3 68 +11 +11 1023.1 1022.1
11 18.01 З 3 н/о н/о +14.4 +4.5 51 +14 +14 1023.0 1022.1
12 18.01 З 2-6
{6}
20 км 4/0
[Ci fib]
+15.5 +5.6 52 +16 +21 1022.7 1021.8
13 18.01 З 5 н/о н/о +15.3 +6.7 56 +14 +14 1022.2 1021.3
14 18.01 З 6-9
{9}
н/о н/о +17.1 +1.8 36 +16 +16 1021.2 1020.3
15 18.01 СЗ 5
{9}
20 км 6/1 900 м
[Cu hum Ci fib]
+16.7 +2.5 38 +16 +17 1020.9 1020.0
16 18.01 З 6 н/о н/о +15.7 +5.4 50 +14 +14 1020.9 1019.9
17 18.01 З 4
{7}
н/о н/о +14.9 +5.2 52 +14 +14 1020.9 1020.0
18 18.01 СЗ 4
{6}
20 км 8/1 1050 м
[Sc Ac trans Ci fib]
+13.6 +3.4 50 +12 +12 1021.3 1020.3 +17.6
19 18.01 СЗ 4-7
{7}
н/о н/о +12.7 +4.4 57 +11 +11 1021.5 1020.6
20 18.01 СЗ 4-5
{6}
н/о н/о +12.4 +5.5 63 +11 +11 1021.5 1020.6
21 18.01 СЗ 2 н/о н/о +12.3 +6.1 66 +12 +12 1021.5 1020.6
22 18.01 СЗ 2 н/о н/о +13.0 +8.2 73 +12 +12 1021.2 1020.2
23 18.01 З 7 н/о н/о +13.2 +11.6 90 +11 +11 1020.7 1019.7
00 19.01 З 6-9
{9}
н/о н/о +13.9 +13.4 97 +12 +12 1019.7 1018.8 0.1
01 19.01 СЗ 3
{12}
н/о н/о +13.2 +12.5 96 +12 +12 1019.6 1018.6
02 19.01 СЗ 3
{6}
н/о н/о +12.1 +11.1 94 +10 +10 1019.2 1018.3
03 19.01 СЗ 3
{5}
н/о н/о +12.2 +10.6 90 +11 +11 1019.4 1018.5
04 19.01 З 3
{5}
н/о н/о +12.0 +10.9 93 +10 +10 1019.4 1018.4
05 19.01 СЗ 3
{5}
н/о н/о +12.0 +10.8 92 +10 +10 1019.1 1018.1
06 19.01 СЗ 4
{6}
н/о н/о +12.3 +10.6 89 +10 +10 1019.1 1018.2 +11.8 0.1
07 19.01 З 5 н/о н/о +12.1 +10.5 90 +10 +10 1019.3 1018.4
08 19.01 СЗ 5-8
{8}
н/о н/о +12.3 +10.6 89 +10 +10 1019.8 1018.8
09 19.01 З 5 н/о н/о +13.2 +11.2 88 +11 +11 1020.3 1019.3
10 19.01 З 3
{7}
н/о н/о +13.7 +11.3 85 +13 +13 1021.1 1020.2
11 19.01 СЗ 1 н/о н/о +14.0 +11.5 85 +14 +14 1021.5 1020.6
12 19.01 З 2 12 км 10/10 360 м
[Sc]
+14.5 +11.7 83 +14 +14 1020.6 1019.7
13 19.01 З 5 н/о н/о +15.3 +13.2 87 +14 +14 1019.8 1018.8

 

Местоположение метеостанции Фару (Португалия): широта 37.02 долгота -7.97 высота над уровнем моря 8 м.

В архиве по умолчанию представлена погода в Фару за последнюю неделю. Архивные данные за месяц целиком и за предыдущие месяцы, начиная с января 2011 года, Вы можете получить, выбрав интересующий диапазон дат из раскрывающегося списка и нажав кнопку "Ввод!".


*Определитесь, кто Вы:
робот инопланетянин человек

Внимание! Время в таблицах - всемирное. Для получения местного времени необходимо прибавить поправку, которая равна 0 ч.

Смотрите также архив погоды в соседних городах и на ближайших метеорологических станциях:

Погода в Сагресе (Португалия) (87 км)
Погода в Уэльве (Испания) (97 км)
Погода в Беже (Португалия) (112 км)
Погода в Бежа аэропорту (Португалия) (117 км)
Погода в Синише (Португалия) (130 км)
Погода в Кадисской бухте (Испания) (163 км)
Погода в Эворе (Португалия) (168 км)
Погода в Херес-де-ла-Фронтере (Испания) (172 км)
Погода в Севилье (Испания) (189 км)
Погода в Монтижу (Португалия) (209 км)

Пояснения к столбцам:

Ветер - указаны скорость ветра в м/с - средняя за 10 мин, порывы в срок и между сроками (в фигурных скобках) и направление, откуда дует ветер: С - северный, СВ - северо-восточный, В - восточный, ЮВ - юго-восточный, Ю - южный, ЮЗ - юго-западный, З - западный, СЗ - северо-западный.
Видимость - горизонтальная дальность видимости в метрах или километрах. При видимости от 1 до 10 км при отсутствии осадков обычно наблюдается дымка, при ухудшении видимости до 1 км и менее - туман. В сухую погоду видимость может ухудшаться дымом, пылью или мглою.
Явления - указаны атмосферные явления, наблюдавшиеся в срок или в последний час перед сроком; фигурными скобками обозначены явления, наблюдавшиеся между сроками (за 1-3 часа до срока); квадратными скобками обозначены град или гололедные отложения с указанием их диаметра в мм.
Облачность - указаны через наклонную черту общая и нижняя облачность в баллах и высота нижней границы облаков в метрах; квадратными скобками обозначены формы облаков: Ci - перистые, Cs - перисто-слоистые, Cc - перисто-кучевые, Ac - высококучевые, As - высокослоистые, Sc - слоисто-кучевые, Ns - слоисто-дождевые, Cu - кучевые, Cb - кучево-дождевые. Подробнее классификацию облаков см. в Атласе облаков (PDF).
T - Температура воздуха - температура, измеренная на высоте 2 м над землей.
Td - Температура точки росы - температура, при понижении до которой содержащийся в воздухе водяной пар достигнет насыщения.
f - Относительная влажность воздуха - влажноcть воздуха, измеренная на высоте 2 м над землей.
Te - Эффективная температура - температура, которую ощущает одетый по сезону человек в тени. Характеристика душности погоды. При расчете учитывается влияние влажности воздуха и скорости ветра на теплоощущения человека.
Tes - Эффективная температура на солнце - температура, которую ощущает человек, с поправкой на солнечный нагрев. Характеристика знойности погоды. Зависит от высоты солнца над горизонтом, облачности и скорости ветра. Ночью, в пасмурную погоду, а также при ветре 12 м/с и более поправка равна нулю.
P - Атмосферное давление - приведенное к уровню моря атмосферное давление.
Po - Атмосферное давление - измеренное на уровне метеостанции атмосферное давление.
Tmin - Минимальная температура - минимум температуры воздуха на высоте 2 м над землей.
Tmax - Максимальная температура - максимум температуры воздуха на высоте 2 м над землей.
R - Количество осадков - Количество выпавших осадков за период времени, мм. При наведении курсора мыши на число - период времени, за который выпало указанное количество осадков.
R24 - Количество осадков - Количество выпавших осадков за 24 часа, мм.
S - Снежный покров - Высота снежного покрова, см. При наведении курсора мыши на число - состояние снежного покрова и степень покрытия местности в баллах.